This demonstration page uses our WeatherBlox Daily Observations layout. Learn more.

Left ArrowRight Arrow

44.8408, -93.29828

Hourly Observations for May 10, 2015

Temp ( °F °C ) Dew Point ( °F °C ) Humidity (%) Winds ( mph kmh ) Pressure ( in mb ) Visibility ( mi km ) Precip ( " mm )
12:53 am 00:53 Mostly Clear 51 10.6 37 2.8 59 59 NE 13 20 30.12 1020 10 16 0.00 0.00
1:53 am 01:53 Mostly Cloudy 50 10 37 2.8 61 61 ENE 14 22 30.11 1020 10 16 0.00 0.00
2:53 am 02:53 Partly Cloudy 49 9.4 36 2.2 61 61 NE 16 26 30.10 1019 10 16 0.00 0.00
3:53 am 03:53 Mostly Clear 48 8.9 36 2.2 63 63 NE 14 22 30.09 1019 10 16 0.00 0.00
4:53 am 04:53 Cloudy 48 8.9 36 2.2 63 63 NE 12 19 30.09 1019 10 16 0.00 0.00
5:53 am 05:53 Cloudy 48 8.9 37 2.8 66 66 NE 12 19 30.08 1019 10 16 0.00 0.00
6:22 am 06:22 Cloudy 48 9 37 3 66 66 NE 17 28 30.06 1018 10 16 0.00 0.00
6:50 am 06:50 Cloudy 48 9 39 4 71 71 ENE 14 22 30.06 1018 10 16 0.00 0.00
6:53 am 06:53 Cloudy 49 9.4 39 3.9 69 69 NE 16 26 30.07 1018 10 16 0.00 0.00
7:53 am 07:53 Cloudy 50 10 41 5 71 71 ENE 12 19 30.07 1018 10 16 0.00 0.00
8:53 am 08:53 Cloudy 52 11.1 42 5.6 69 69 ENE 17 28 30.04 1017 10 16 0.00 0.00
9:53 am 09:53 Mostly Cloudy 54 12.2 41 5 62 62 E 20 31 30.04 1017 10 16 0.00 0.00
10:53 am 10:53 Mostly Cloudy 55 12.8 41 5 59 59 E 16 26 30.01 1016 10 16 0.00 0.00
11:49 am 11:49 Cloudy 55 13 43 6 63 63 E 18 30 29.97 1015 10 16 0.00 0.00
11:53 am 11:53 Cloudy 55 12.8 42 5.6 62 62 E 17 28 29.98 1015 10 16 0.00 0.00
12:53 pm 12:53 Cloudy 55 12.8 46 7.8 72 72 ENE 13 20 29.98 1015 10 16 0.01 0.25
1:53 pm 13:53 Cloudy 58 14.4 46 7.8 65 65 E 16 26 29.94 1014 10 16 0.00 0.00
2:53 pm 14:53 Cloudy 60 15.6 46 7.8 60 60 E 16 26 29.93 1014 10 16 0.00 0.00
3:53 pm 15:53 Cloudy 60 15.6 47 8.3 62 62 E 14 22 29.91 1013 10 16 0.00 0.03
4:53 pm 16:53 Cloudy 60 15.6 47 8.3 62 62 E 14 22 29.91 1013 10 16 0.00 0.00
5:26 pm 17:26 Cloudy 57 14 48 9 72 72 E 20 31 29.88 1012 7 11 0.00 0.00
5:53 pm 17:53 Cloudy 59 15 47 8.3 64 64 ESE 18 30 29.91 1013 10 16 0.00 0.03
6:53 pm 18:53 Cloudy 59 15 48 8.9 67 67 E 13 20 29.88 1012 10 16 0.00 0.00
7:53 pm 19:53 Cloudy with Rain 57 13.9 50 10 78 78 ESE 8 13 29.90 1012 4 6 0.01 0.25
8:03 pm 20:03 Cloudy with Heavy Rain 55 13 52 11 88 88 ENE 7 11 29.88 1012 2 3 0.00 0.00
8:09 pm 20:09 Cloudy with Light Rain 56 13.3 51 10.6 84 84 NNE 8 13 29.85 1011 4 6 0.09 2.29
8:38 pm 20:38 Cloudy with Light Rain 55 12.8 52 11.1 90 90 ENE 12 19 29.88 1012 8 13 0.12 3.05
8:53 pm 20:53 Cloudy with Light Rain 55 12.8 52 11.1 90 90 NE 12 19 29.86 1011 6 10 0.13 3.30
9:53 pm 21:53 Cloudy with Rain 55 12.8 53 11.7 93 93 NE 12 19 29.82 1010 3 4 0.04 1.02
10:16 pm 22:16 Cloudy with Light Rain 55 13 54 12 94 94 ENE 7 11 29.83 1010 4 6 0.00 0.00
10:24 pm 22:24 Cloudy with Light Rain 55 13 54 12 94 94 NE 7 11 29.83 1010 6 10 0.00 0.00
10:41 pm 22:41 Cloudy with Rain 55 12.8 54 12.2 96 96 NE 8 13 29.83 1010 3 4 0.10 2.54
10:51 pm 22:51 Cloudy with Rain 55 13 54 12 94 94 N 7 11 29.83 1010 4 6 0.15 3.81
10:53 pm 22:53 Cloudy with Light Rain 55 12.8 54 12.2 96 96 N 6 9 29.82 1010 5 8 0.16 4.06
11:23 pm 23:23 Cloudy with Rain 54 12.2 53 11.7 97 97 NE 6 9 29.80 1009 3 4 0.09 2.29
11:53 pm 23:53 Cloudy with Rain 55 12.8 54 12.2 96 96 E 15 24 29.80 1009 2 3 0.24 6.10

Powered by AerisWeather